Hourly Weather Barrancas

Today, 19 April, Monday

Time Temperature Precipitation Wind Pressure Humidity
00:00 +26°C° 0 mm 1 mps 719 mmHg 69%
01:00 +26°C° 0 mm 1 mps 719 mmHg 69%
02:00 +26°C° 0 mm 1 mps 719 mmHg 71%
03:00 +25°C° 0 mm 1 mps 719 mmHg 73%
04:00 +25°C° 0 mm 1 mps 719 mmHg 74%
05:00 +25°C° 0 mm 1 mps 720 mmHg 72%
06:00 +26°C° 0 mm 1 mps 720 mmHg 69%
07:00 +26°C° 0 mm 2 mps 721 mmHg 66%
08:00 +29°C° 0 mm 2 mps 722 mmHg 58%
09:00 +31°C° 0 mm 2 mps 722 mmHg 50%
10:00 +34°C° 0 mm 2 mps 722 mmHg 42%
11:00 +35°C° 0 mm 2 mps 722 mmHg 37%
12:00 +36°C° 0 mm 2 mps 721 mmHg 32%
13:00 +38°C° 0 mm 2 mps 720 mmHg 27%
14:00 +37°C° 0 mm 3 mps 719 mmHg 28%
15:00 +36°C° 0 mm 4 mps 719 mmHg 29%
16:00 +36°C° 0 mm 4 mps 718 mmHg 31%
17:00 +34°C° 0 mm 4 mps 718 mmHg 39%
18:00 +30°C° 0 mm 3 mps 719 mmHg 47%
19:00 +28°C° 0 mm 3 mps 719 mmHg 55%
20:00 +28°C° 0 mm 3 mps 720 mmHg 56%
21:00 +27°C° 0 mm 3 mps 720 mmHg 58%
22:00 +27°C° 0 mm 2 mps 720 mmHg 59%
23:00 +26°C° 0 mm 2 mps 720 mmHg 60%

Tomorrow, 20 April, Tuesday

Time Temperature Precipitation Wind Pressure Humidity
00:00 +26°C° 0 mm 2 mps 720 mmHg 61%
01:00 +25°C° 0 mm 2 mps 719 mmHg 62%
02:00 +25°C° 0 mm 2 mps 719 mmHg 64%
03:00 +24°C° 0 mm 2 mps 719 mmHg 67%
04:00 +24°C° 0 mm 2 mps 719 mmHg 69%
05:00 +25°C° 0 mm 2 mps 720 mmHg 67%
06:00 +25°C° 0 mm 2 mps 720 mmHg 65%
07:00 +26°C° 0 mm 2 mps 721 mmHg 63%
08:00 +28°C° 0 mm 2 mps 721 mmHg 55%
09:00 +31°C° 0 mm 2 mps 722 mmHg 46%
10:00 +34°C° 0 mm 2 mps 722 mmHg 38%
11:00 +35°C° 0 mm 2 mps 722 mmHg 34%
12:00 +37°C° 0 mm 2 mps 721 mmHg 30%
13:00 +38°C° 0 mm 2 mps 720 mmHg 26%
14:00 +37°C° 0 mm 3 mps 720 mmHg 30%
15:00 +36°C° 0 mm 4 mps 719 mmHg 35%
16:00 +34°C° 0 mm 5 mps 719 mmHg 39%
17:00 +33°C° 0 mm 4 mps 719 mmHg 43%
18:00 +32°C° 0 mm 4 mps 719 mmHg 48%
19:00 +29°C° 0 mm 3 mps 719 mmHg 53%
20:00 +28°C° 0 mm 3 mps 720 mmHg 55%
21:00 +28°C° 0 mm 3 mps 720 mmHg 58%
22:00 +27°C° 0 mm 2 mps 720 mmHg 60%
23:00 +27°C° 0 mm 2 mps 720 mmHg 61%

Day after tomorrow, 21 April, Wednesday

Time Temperature Precipitation Wind Pressure Humidity
00:00 +26°C° 0 mm 2 mps 720 mmHg 63%
01:00 +26°C° 0 mm 2 mps 720 mmHg 64%
02:00 +25°C° 0 mm 2 mps 720 mmHg 66%
03:00 +25°C° 0 mm 2 mps 720 mmHg 68%
04:00 +24°C° 0 mm 2 mps 720 mmHg 69%
05:00 +25°C° 0 mm 2 mps 720 mmHg 67%
06:00 +26°C° 0 mm 1 mps 721 mmHg 64%
07:00 +26°C° 0 mm 1 mps 721 mmHg 62%
08:00 +29°C° 0 mm 1 mps 721 mmHg 55%
09:00 +31°C° 0 mm 1 mps 722 mmHg 47%
10:00 +33°C° 0 mm 1 mps 722 mmHg 40%
11:00 +35°C° 0 mm 2 mps 721 mmHg 37%
12:00 +36°C° 0 mm 2 mps 721 mmHg 34%
13:00 +37°C° 0 mm 3 mps 720 mmHg 31%
14:00 +35°C° 0 mm 3 mps 720 mmHg 35%
15:00 +34°C° 0 mm 4 mps 719 mmHg 40%
16:00 +33°C° 0 mm 4 mps 719 mmHg 45%
17:00 +30°C° 0 mm 4 mps 719 mmHg 51%
18:00 +29°C° 0 mm 3 mps 719 mmHg 57%
19:00 +27°C° 0 mm 2 mps 719 mmHg 63%
20:00 +27°C° 0 mm 2 mps 720 mmHg 63%
21:00 +27°C° 0 mm 2 mps 720 mmHg 64%
22:00 +26°C° 0 mm 2 mps 720 mmHg 65%
23:00 +26°C° 0 mm 2 mps 720 mmHg 67%

22 April, Thursday

Time Temperature Precipitation Wind Pressure Humidity
00:00 +25°C° 0 mm 2 mps 720 mmHg 68%
01:00 +25°C° 0 mm 2 mps 719 mmHg 69%
02:00 +25°C° 0 mm 2 mps 719 mmHg 71%
03:00 +24°C° 0 mm 2 mps 719 mmHg 72%
04:00 +24°C° 0 mm 2 mps 719 mmHg 74%
05:00 +25°C° 0 mm 1 mps 720 mmHg 71%
06:00 +26°C° 0 mm 1 mps 720 mmHg 68%
07:00 +26°C° 0 mm 1 mps 721 mmHg 64%
08:00 +29°C° 0 mm 1 mps 721 mmHg 57%
09:00 +31°C° 0 mm 1 mps 722 mmHg 50%
10:00 +31°C° 0 mm 0 mps 722 mmHg 43%
11:00 +33°C° 0.1 mm 1 mps 721 mmHg 41%
12:00 +34°C° 0.1 mm 1 mps 720 mmHg 39%
13:00 +35°C° 0.1 mm 2 mps 720 mmHg 38%
14:00 +34°C° 0 mm 3 mps 719 mmHg 40%
15:00 +34°C° 0 mm 4 mps 719 mmHg 43%
16:00 +33°C° 0 mm 5 mps 718 mmHg 46%
17:00 +30°C° 0 mm 4 mps 719 mmHg 53%
18:00 +28°C° 0 mm 3 mps 719 mmHg 61%
19:00 +27°C° 0 mm 3 mps 719 mmHg 69%
20:00 +26°C° 0 mm 2 mps 720 mmHg 72%
21:00 +26°C° 0 mm 2 mps 720 mmHg 75%
22:00 +25°C° 0 mm 2 mps 720 mmHg 78%
23:00 +26°C° 0 mm 2 mps 720 mmHg 75%

23 April, Friday

Time Temperature Precipitation Wind Pressure Humidity
00:00 +26°C° 0 mm 2 mps 720 mmHg 73%
01:00 +26°C° 0 mm 2 mps 719 mmHg 70%
02:00 +26°C° 0 mm 1 mps 719 mmHg 71%
03:00 +26°C° 0 mm 1 mps 720 mmHg 73%
04:00 +25°C° 0 mm 1 mps 720 mmHg 74%
05:00 +26°C° 0 mm 1 mps 720 mmHg 71%
06:00 +26°C° 0 mm 1 mps 721 mmHg 69%
07:00 +27°C° 0 mm 1 mps 721 mmHg 66%
08:00 +29°C° 0.1 mm 1 mps 721 mmHg 58%
09:00 +31°C° 0.1 mm 1 mps 722 mmHg 51%
10:00 +33°C° 0.1 mm 1 mps 722 mmHg 43%
11:00 +33°C° 0.1 mm 1 mps 721 mmHg 42%
12:00 +34°C° 0.1 mm 2 mps 720 mmHg 41%
13:00 +35°C° 0.1 mm 2 mps 720 mmHg 40%
14:00 +34°C° 0 mm 3 mps 719 mmHg 44%
15:00 +33°C° 0 mm 3 mps 719 mmHg 47%
16:00 +32°C° 0 mm 4 mps 718 mmHg 51%
17:00 +30°C° 0 mm 4 mps 719 mmHg 57%
18:00 +28°C° 0 mm 3 mps 719 mmHg 64%
19:00 +26°C° 0 mm 2 mps 719 mmHg 71%
20:00 +26°C° 0 mm 2 mps 719 mmHg 72%
21:00 +26°C° 0 mm 2 mps 719 mmHg 73%
22:00 +26°C° 0 mm 2 mps 720 mmHg 74%
23:00 +26°C° 0 mm 2 mps 719 mmHg 73%

24 April, Saturday

Time Temperature Precipitation Wind Pressure Humidity
00:00 +26°C° 0 mm 2 mps 719 mmHg 72%
01:00 +26°C° 0 mm 2 mps 719 mmHg 72%
02:00 +25°C° 0 mm 2 mps 719 mmHg 74%
03:00 +25°C° 0 mm 2 mps 719 mmHg 76%
04:00 +24°C° 0 mm 1 mps 719 mmHg 78%
05:00 +25°C° 0 mm 1 mps 719 mmHg 74%
06:00 +26°C° 0 mm 1 mps 720 mmHg 70%
07:00 +27°C° 0 mm 1 mps 720 mmHg 67%
08:00 +29°C° 0 mm 1 mps 721 mmHg 59%
09:00 +31°C° 0 mm 1 mps 721 mmHg 51%
10:00 +34°C° 0 mm 1 mps 721 mmHg 42%
11:00 +34°C° 0 mm 2 mps 721 mmHg 43%
12:00 +34°C° 0 mm 3 mps 720 mmHg 43%
13:00 +34°C° 0 mm 3 mps 719 mmHg 44%
14:00 +33°C° 0 mm 3 mps 719 mmHg 46%
15:00 +33°C° 0 mm 3 mps 718 mmHg 48%
16:00 +33°C° 0 mm 3 mps 718 mmHg 51%
17:00 +31°C° 0 mm 3 mps 718 mmHg 53%
18:00 +30°C° 0 mm 3 mps 718 mmHg 55%
19:00 +29°C° 0 mm 3 mps 719 mmHg 57%
20:00 +28°C° 0 mm 3 mps 719 mmHg 60%
21:00 +28°C° 0 mm 2 mps 719 mmHg 62%
22:00 +27°C° 0 mm 2 mps 719 mmHg 64%
23:00 +26°C° 0 mm 2 mps 719 mmHg 66%
Show more